GSAT0218 (GALILEO 22) (43058 NORAD) Tracking and Keplerian Element Data

This shows tracking and keplerian element data for the satellite.

Feedback or suggestion? Click here.




ElementValue
Catalog43058
NameGSAT0218 (GALILEO 22)
Epoch Orbit4039
Epoch Day158.89407347
Epoch Year2024
RAAN241.8787
Inclination55.3444
Eccentricity0.0003919
Argument of Perigee265.8825
Mean Anonmoly94.1401
Mean Motion1.70474828
Decay Rate4E-08
L11 43058U 17079D 24158.89407347 .00000004 00000+0 00000+0 0 9998
L22 43058 55.3444 241.8787 0003919 265.8825 94.1401 1.70474828 40398



Live tracking and technical data element details for GSAT0218 (GALILEO 22) (NORAD 43058). GSAT0218 (GALILEO 22) can be tracked NOW for your location showing map with azimuth and elevation plus other details from your city location.







IsCatalogInMostPopularTable: catalog: 43058, numindb: 832
Update: records affected: 1



GetName: 43058 GSAT0218 (GALILEO 22)

Hit Count: updated at: Tue, 17 Sep 2024 11:25:12 GMT